EW3148 Weather Reports


Display with metric or nautical units.
time (UTC)temp
F
wind
direction
speed
MPH
gust
MPH
rain 1hr
in
rain 24hr
in
rain mn
in
humidity
%
barometer
mb
20260509113257 72 5 1.0 3.0 0.00 0.02 0.02 95 1009.3
20260509112251 72 41 0.0 7.0 0.00 0.02 0.02 95 1009.4
20260509111235 72 46 1.0 7.0 0.00 0.02 0.02 95 1009.4
20260509110205 72 43 1.0 5.0 0.00 0.02 0.02 95 1009.3
20260509105145 72 71 1.0 5.0 0.00 0.01 0.01 95 1009.5
20260509104135 73 5 0.0 3.0 0.00 0.01 0.01 95 1009.6
20260509101939 72 41 0.0 2.0 0.00 0.01 0.01 95 1009.0
20260509101002 72 96 0.0 1.0 0.00 0.01 0.01 95 1008.7
20260509095942 72 96 0.0 1.0 0.00 0.01 0.01 95 1008.5
20260509094957 72 96 0.0 2.0 0.00 0.01 0.01 95 1008.2
20260509094014 72 83 0.0 1.0 0.00 0.01 0.01 95 1008.1
20260509093014 72 83 0.0 0.0 0.00 0.01 0.01 94 1008.3
20260509092037 72 100 0.0 2.0 0.00 0.01 0.01 94 1008.0
20260509085920 72 80 0.0 0.0 0.00 0.00 0.00 94 1008.0
20260509084907 72 80 0.0 1.0 0.00 0.00 0.00 94 1008.2
20260509083850 73 49 0.0 2.0 0.00 0.00 0.00 94 1008.3
20260509082847 73 77 0.0 1.0 0.00 0.00 0.00 94 1008.4
20260509081840 73 76 0.0 0.0 0.00 0.00 0.00 94 1008.4
20260509075736 73 78 0.0 0.0 0.00 0.00 0.00 93 1008.3
20260509072431 73 125 0.0 4.0 0.00 0.00 0.00 93 1008.2
20260509071417 73 172 0.0 2.0 0.00 0.00 0.00 93 1008.3
20260509070442 73 180 0.0 3.0 0.00 0.00 0.00 93 1008.5
20260509065506 73 169 0.0 3.0 0.00 0.00 0.00 93 1008.6
20260509064440 73 150 2.0 7.0 0.00 0.00 0.00 93 1008.5
20260509063422 73 175 1.0 10.0 0.00 0.00 0.00 92 1008.2
20260509062445 73 182 2.0 10.0 0.00 0.00 0.00 92 1008.0
20260509061414 73 179 3.0 9.0 0.00 0.00 0.00 92 1008.1
20260509060351 73 186 2.0 13.0 0.00 0.00 0.00 92 1008.1
20260509055411 73 195 3.0 13.0 0.00 0.00 0.00 91 1008.1
20260509053317 73 217 4.0 11.0 0.00 0.00 0.00 92 1008.0
20260509052319 73 184 3.0 10.0 0.00 0.00 0.00 92 1008.2
20260509051311 73 159 2.0 8.0 0.00 0.00 0.00 92 1008.0
20260509050316 72 166 2.0 7.0 0.00 0.00 0.00 92 1007.8
20260509045307 72 140 1.0 5.0 0.00 0.00 0.00 91 1007.8
20260509044325 72 180 2.0 4.0 0.00 0.00 0.00 91 1007.7
20260509043328 73 174 2.0 6.0 0.00 0.00 0.00 91 1007.7
20260509042306 73 164 2.0 6.0 0.00 0.00 0.00 90 1007.8
20260509041306 73 132 3.0 7.0 0.00 0.00 0.00 90 1007.9
20260509040323 73 173 3.0 9.0 0.00 0.00 0.00 89 1008.1
20260509034131 74 179 3.0 6.0 0.00 0.00 0.00 88 1008.2
20260509033111 74 149 2.0 5.0 0.00 0.00 0.00 88 1008.2
20260509025740 74 170 3.0 7.0 0.00 0.00 0.00 87 1007.6
20260509024727 74 165 2.0 6.0 0.00 0.00 0.00 87 1007.7
20260509023731 74 157 1.0 4.0 0.00 0.00 0.00 86 1007.6
20260509022731 74 143 2.0 4.0 0.00 0.00 0.00 87 1007.7
20260509021722 74 181 1.0 6.0 0.00 0.00 0.00 86 1007.5
20260509020713 74 163 2.0 6.0 0.00 0.00 0.00 86 1007.3
20260509015723 74 112 2.0 7.0 0.00 0.00 0.00 85 1007.0
20260509014719 75 140 3.0 8.0 0.00 0.00 0.00 84 1006.8
20260509012620 76 98 2.0 7.0 0.00 0.00 0.00 83 1006.9
20260509011608 76 134 2.0 4.0 0.00 0.00 0.00 82 1006.8
20260509010622 76 149 1.0 8.0 0.00 0.00 0.00 82 1006.9
20260509005634 77 119 1.0 8.0 0.00 0.00 0.00 81 1006.9
20260509003515 77 171 2.0 6.0 0.00 0.00 0.00 79 1006.8
20260509002446 77 177 1.0 6.0 0.00 0.00 0.00 79 1006.8
20260509001428 78 118 2.0 6.0 0.00 0.00 0.00 78 1006.9
20260508234145 78 144 3.0 8.0 0.00 0.00 0.00 77 1006.9
20260508233145 78 81 3.0 7.0 0.00 0.00 0.00 76 1006.8
20260508231033 79 210 3.0 8.0 0.00 0.00 0.00 75 1006.9
20260508230014 79 172 4.0 10.0 0.00 0.00 0.00 76 1006.9
20260508224952 79 196 3.0 10.0 0.00 0.00 0.00 74 1007.0
20260508223945 79 172 4.0 10.0 0.00 0.00 0.00 74 1006.9
20260508222940 79 188 3.0 9.0 0.00 0.00 0.00 74 1006.9
20260508221906 79 167 4.0 11.0 0.00 0.00 0.00 74 1006.9
20260508220853 80 163 3.0 10.0 0.00 0.00 0.00 73 1007.1
20260508214729 81 174 4.0 12.0 0.00 0.00 0.00 72 1007.1
20260508213703 81 189 3.0 9.0 0.00 0.00 0.00 70 1007.2
20260508212711 82 145 3.0 10.0 0.00 0.00 0.00 71 1007.2
20260508210600 80 92 3.0 10.0 0.00 0.00 0.00 73 1007.6
20260508205528 79 126 3.0 8.0 0.00 0.00 0.00 73 1007.9
20260508204545 79 160 2.0 7.0 0.00 0.00 0.00 73 1007.9
20260508203554 80 136 3.0 8.0 0.00 0.00 0.00 73 1008.0
20260508202541 79 129 3.0 8.0 0.00 0.00 0.00 73 1008.1
20260508201524 79 56 2.0 11.0 0.00 0.00 0.00 73 1008.2
20260508200545 80 81 3.0 11.0 0.00 0.00 0.00 71 1008.3
20260508193228 80 112 2.0 8.0 0.00 0.00 0.00 71 1008.7
20260508185841 77 90 3.0 8.0 0.00 0.00 0.00 74 1009.0
20260508184855 78 142 2.0 8.0 0.00 0.00 0.00 72 1009.2
20260508183909 78 128 2.0 8.0 0.00 0.00 0.00 72 1009.2
20260508182914 78 195 2.0 9.0 0.00 0.00 0.00 71 1009.5
20260508181846 78 161 3.0 9.0 0.00 0.00 0.00 71 1009.7
20260508180857 77 152 2.0 8.0 0.00 0.00 0.00 73 1009.8
20260508175848 77 73 2.0 8.0 0.00 0.00 0.00 73 1010.0
20260508174906 77 47 1.0 4.0 0.00 0.00 0.00 72 1010.1
20260508173836 77 62 1.0 5.0 0.00 0.00 0.00 71 1010.1
20260508171716 79 71 0.0 2.0 0.00 0.00 0.00 70 1010.2
20260508170719 79 250 0.0 2.0 0.00 0.00 0.00 71 1010.3
20260508165702 79 165 0.0 3.0 0.00 0.00 0.00 72 1010.4
20260508164718 78 0 0.0 3.0 0.00 0.00 0.00 73 1010.5
20260508163643 77 287 0.0 3.0 0.00 0.00 0.00 72 1010.6
20260508162655 76 251 0.0 3.0 0.00 0.00 0.00 75 1010.8
20260508161628 74 254 0.0 3.0 0.00 0.00 0.00 76 1011.0
20260508160643 72 255 0.0 2.0 0.00 0.00 0.00 77 1011.2
20260508155653 70 97 0.0 0.0 0.00 0.00 0.00 79 1011.3
20260508154709 69 122 0.0 3.0 0.00 0.00 0.00 79 1011.4
20260508153722 69 173 0.0 3.0 0.00 0.00 0.00 78 1011.6
20260508152715 69 254 0.0 2.0 0.00 0.00 0.00 78 1011.8
20260508151652 68 212 0.0 4.0 0.00 0.00 0.00 78 1011.9
20260508150714 67 123 1.0 5.0 0.00 0.00 0.00 79 1012.0
20260508145735 67 195 1.0 5.0 0.00 0.00 0.00 79 1012.2
20260508144724 66 146 0.0 3.0 0.00 0.00 0.00 80 1012.1
20260508142556 64 123 1.0 4.0 0.00 0.00 0.00 80 1012.1
20260508141522 64 89 1.0 5.0 0.00 0.00 0.00 82 1012.0
20260508135417 64 10 0.0 4.0 0.00 0.00 0.00 82 1012.0
20260508134345 63 63 0.0 4.0 0.00 0.00 0.00 82 1012.1
20260508133324 63 38 1.0 6.0 0.00 0.00 0.00 83 1012.0
20260508132313 62 58 1.0 6.0 0.00 0.00 0.00 83 1012.0
20260508131311 62 51 0.0 3.0 0.00 0.00 0.00 84 1012.2
20260508130244 62 355 1.0 5.0 0.00 0.00 0.00 84 1012.1
20260508125254 61 347 0.0 5.0 0.00 0.00 0.00 85 1012.2
20260508124258 61 42 0.0 2.0 0.00 0.00 0.00 86 1012.3
20260508122047 61 13 0.0 3.0 0.00 0.00 0.00 86 1012.2
20260508121108 61 355 0.0 1.0 0.00 0.00 0.00 86 1012.3
20260508120131 61 51 0.0 0.0 0.00 0.00 0.00 86 1012.4
20260508115147 61 33 0.0 2.0 0.00 0.00 0.00 85 1012.5
20260508114116 62 5 0.0 2.0 0.00 0.00 0.00 84 1012.7